Location: Arroyo de Valdeoliva
(40.1604°N, 4.9878°W)
Time: 09:02:06
(UTC+00:00)

BlueWalker 3 - Pass Details

Date: 24 February 2026
Orbit: 451 x 458 km, 53.2° (Epoch: 6 March)

Event Time Altitude Azimuth Distance (km) Brightness Sun altitude
Exits shadow 05:13:36 15° 175° (S) 1,324 4.0 -21.3°
Maximum altitude 05:15:39 24° 130° (SE) 994 3.9 -20.9°
Drops below altitude 10° 05:18:35 10° 75° (ENE) 1,596 5.6 -20.3°
Sets 05:20:59 0° 61° (ENE) 2,472 6.6 -19.8°
